Bou Chekif current weather conditions

sailwx.info

Wind from 210 at 9 knots

Air temperature 7.0° C
Visibility: greater than 4.9 NM
Dewpoint 2.0° C

Last reported at 2017-Jan-19 16:00 UTC.
Time now 2017-Jan-20 14:06 UTC

Location: N 35°20' E 001°28'.
View on Google Maps.

See reports from other nearby stations

  
Tides and Currents Weather Stations Pressure Air Temp Water Temp Dewpoint Dewpoint Depression Visibility Wind Speed Wind Dir Waves Ship Positions
date/time (UTC)wind fromknots sea level pressurealtimeterstation pressurevisibilityair tempwater tempwave heightnotes
2017-Jan-19 16:00 210 9 4.9 7.0
2017-Jan-19 15:00 200 15 5.4 7.0
2017-Jan-19 14:00 180 12 5.4 8.0
2017-Jan-19 10:00 150 12 5.4 4.0
2017-Jan-19 08:00 020 9 5.4 4.0
2017-Jan-19 07:00 190 12 5.4 3.0
2017-Jan-19 06:00 200 9 5.4 3.0
2017-Jan-19 05:00 5.4-0.0
2017-Jan-19 04:00 070 5 5.4-0.0
2017-Jan-19 03:00 070 6 5.4-0.0
2017-Jan-19 02:00 080 9 4.9-0.0
2017-Jan-19 01:00 100 12 4.9 1.0
2017-Jan-19 00:00 070 9 4.9-0.0
2017-Jan-18 23:00 090 12 4.3-0.0
2017-Jan-18 22:00 090 12 3.8-0.0 Light snow.
2017-Jan-18 21:00 070 12 3.8-0.0 Light snow.
2017-Jan-18 20:00 080 13 4.3-0.0 Light snow.
2017-Jan-18 19:00 110 13 5.4 1.0
2017-Jan-18 18:00 090 12 5.4 2.0
2017-Jan-18 17:00 090 11 5.4 2.0
2017-Jan-18 16:00 110 6 5.4 2.0
2017-Jan-18 15:00 110 6 5.4 3.0
2017-Jan-18 14:00 110 5 5.4 2.0